Wind_Speed
30 30 31 31 31 32 32 32 32 33 32 32 32 32 32 33 35 35 35 35 36 36 36 35 35 35 34 34 34 35 36 37 38 39 40 39 39 40
31 32 31 31 32 32 32 32 33 33 33 33 33 34 34 34 35 35 35 36 37 36 35 35 34 33 33 33 34 35 36 37 37 38 37 38 38 38
31 31 31 31 32 32 32 32 33 33 33 33 33 33 33 35 36 36 35 35 34 33 33 33 33 34 34 34 34 35 35 36 37 37 37 37 37 37
29 29 30 31 32 32 32 32 32 32 32 32 33 33 34 35 35 34 34 34 33 33 33 34 34 34 35 34 35 35 36 36 36 35 35 35 35 34
28 27 27 28 29 29 30 30 30 31 31 32 32 33 33 33 33 33 33 34 33 34 33 33 33 34 34 35 35 35 35 35 34 33 33 32 31 30
25 26 26 27 27 28 28 29 30 30 30 30 30 30 31 32 33 33 33 33 33 33 32 32 32 32 33 33 33 32 32 31 30 30 29 29 28 27
23 23 24 25 26 26 27 28 28 28 28 28 29 30 30 30 30 31 31 31 31 30 31 31 30 31 31 30 30 29 29 28 28 27 26 25 25 25
20 21 21 22 23 24 25 26 26 26 26 27 27 27 28 29 28 28 28 28 28 29 29 29 28 28 27 27 27 27 26 26 25 24 24 23 23 22
18 19 20 21 21 22 22 22 22 23 23 24 25 25 26 26 26 26 26 25 26 26 25 25 25 25 25 24 24 23 23 22 22 22 21 21 21 20
16 16 17 17 18 19 19 20 21 21 21 22 23 24 24 23 23 23 24 24 24 23 23 23 22 21 21 20 20 19 19 20 20 19 19 19 18 18
14 14 14 15 15 16 16 17 17 18 19 20 20 21 21 21 21 21 21 20 20 20 20 20 19 19 18 18 18 18 18 18 18 18 17 17 17 17
10 10 11 11 12 13 13 13 13 14 15 16 16 16 16 16 16 16 16 16 16 17 17 17 17 17 16 16 16 16 17 17 17 16 16 16 16 16
7 7 8 8 8 8 8 9 9 9 9 10 10 11 11 11 12 12 13 14 14 14 14 15 15 15 15 15 15 15 15 15 15 15 15 15 15 15
3 3 3 4 4 5 5 6 6 7 7 7 8 8 9 10 10 11 12 12 12 13 13 14 14 13 14 14 14 14 14 14 14 14 14 14 15 15
4 4 4 4 4 3 4 4 5 5 5 5 6 6 7 8 8 9 10 10 11 12 12 12 12 12 12 13 13 12 12 13 13 13 13 14 14 14
7 7 6 6 5 5 4 5 5 5 5 5 6 6 6 7 7 8 9 9 10 10 10 11 11 12 12 12 12 12 12 12 13 13 13 14 14 15
9 9 8 8 7 7 7 6 6 6 6 5 5 6 6 7 8 8 8 9 9 9 9 10 10 11 10 10 11 11 12 12 13 14 14 15 15 16
10 10 10 10 9 9 9 9 8 8 8 7 7 7 8 8 8 8 8 8 8 9 9 9 10 10 10 10 11 11 12 12 13 14 15 15 16 17
12 12 12 12 12 12 12 11 11 10 9 9 9 9 9 9 9 9 9 9 9 9 9 9 9 10 10 10 11 12 13 14 15 16 16 17 17 18
13 13 14 14 14 13 13 12 12 12 11 11 11 11 11 11 10 10 10 10 10 10 10 10 10 11 11 12 13 14 15 16 17 18 18 19 19 19
14 15 15 15 15 15 14 14 14 14 13 13 13 13 12 12 12 12 11 11 11 11 11 11 12 13 13 14 14 15 17 18 19 20 20 20 20 21
15 15 16 16 16 15 15 15 14 14 14 14 14 14 13 13 13 13 13 13 13 13 13 14 14 15 16 16 17 18 18 19 20 20 21 22 22 22
16 16 16 16 16 16 16 15 15 15 15 14 14 14 14 14 14 14 14 14 14 15 15 16 17 17 18 19 19 20 21 21 21 21 22 23 23 24
Wind_Direction
266 265 263 262 260 260 260 261 262 264 264 264 266 268 269 270 271 271 272 273 275 276 276 278 281 281 282 281 282 284 285 285 287 289 290 289 290 290
265 264 263 262 261 262 261 261 262 263 264 264 267 269 270 272 271 271 272 274 275 276 278 279 281 282 282 283 286 288 288 289 290 291 289 289 291 292
266 263 262 262 262 264 265 263 263 264 265 266 269 270 270 270 272 271 272 276 277 280 282 284 285 284 285 287 288 288 289 291 292 291 290 291 293 293
268 266 264 263 263 266 267 266 265 267 268 269 270 269 269 270 272 272 275 279 281 283 284 285 285 286 287 288 289 289 290 291 292 292 292 293 294 294
267 266 267 265 265 266 266 267 268 268 268 268 269 269 270 270 272 275 277 278 280 282 283 284 285 287 289 289 289 291 291 292 293 294 294 295 294 294
266 265 265 265 265 266 267 268 268 267 268 268 269 270 272 273 274 274 276 278 279 281 283 285 286 288 290 290 290 291 291 292 293 294 295 295 294 293
266 265 265 265 264 265 266 267 268 268 267 269 271 273 274 275 275 275 276 278 280 282 285 285 287 289 290 290 291 291 292 293 294 295 295 295 294 293
267 267 267 268 267 267 267 268 268 268 271 271 273 276 275 275 274 276 278 279 282 284 286 287 289 290 289 290 291 292 293 293 293 294 294 294 293 293
266 268 267 266 266 266 266 266 267 269 272 273 274 276 276 275 276 278 281 282 283 285 287 289 290 290 290 290 291 293 292 292 293 294 294 294 294 295
271 272 269 266 267 268 269 269 270 271 273 274 275 276 277 278 280 283 284 283 284 284 286 288 288 289 292 291 293 295 293 294 295 295 296 296 296 297
274 277 277 275 274 273 274 275 274 274 275 277 280 279 280 280 280 281 283 284 283 284 284 286 288 290 291 293 293 294 294 294 295 297 298 299 299 300
278 282 281 280 279 277 278 281 280 280 281 280 280 280 280 280 280 281 283 284 284 284 285 287 290 292 292 293 293 294 295 296 298 300 300 301 301 301
279 284 285 283 283 283 285 285 285 286 286 289 288 285 285 285 286 285 284 286 287 287 288 289 291 292 292 293 294 296 298 300 301 301 301 302 302 302
319 313 308 309 307 307 306 304 301 299 300 298 296 294 295 296 295 293 291 291 291 291 292 293 293 292 294 297 300 300 301 302 302 302 302 303 304 303
35 30 21 9 357 345 337 333 331 327 325 322 319 316 316 313 309 305 300 297 296 297 296 296 296 298 301 303 304 303 303 303 302 303 303 304 305 304
47 41 37 33 27 21 13 6 1 358 355 350 347 339 335 332 329 324 317 312 309 306 302 300 300 301 304 306 305 304 304 304 303 304 305 305 306 306
53 47 42 39 37 34 31 27 23 18 15 11 6 2 356 349 342 336 331 326 322 319 317 313 310 309 308 308 306 306 306 306 306 306 307 308 308 310
57 52 49 49 48 45 43 41 39 37 34 30 22 16 10 4 360 355 348 343 338 332 327 322 319 316 315 313 312 312 311 312 312 311 311 311 311 311
57 54 54 54 52 51 50 48 47 44 41 36 29 21 14 8 4 1 358 354 349 344 340 336 331 326 323 320 317 314 314 314 313 312 311 311 310 309
59 57 55 54 53 53 52 49 45 42 39 35 30 25 20 16 13 10 6 1 357 353 347 342 337 332 327 323 320 317 315 314 313 312 311 310 309 309
60 58 57 56 55 55 53 51 48 44 42 38 33 28 25 22 19 15 10 4 358 353 348 343 339 336 332 328 325 320 316 315 314 313 312 311 309 309
60 59 58 57 55 53 51 48 45 41 38 34 31 28 25 21 16 11 7 3 359 353 347 341 337 333 329 326 323 321 318 315 314 313 311 310 310 308
61 60 58 55 52 49 45 41 36 32 28 26 24 20 16 12 8 4 1 357 353 349 346 342 339 335 331 326 323 320 318 316 314 312 310 309 309 308
Height
5779 5780 5781 5782 5784 5785 5787 5788 5790 5791 5792 5794 5795 5795 5796 5797 5797 5797 5798 5798 5797 5797 5797 5797 5796 5796 5795 5794 5792 5791 5789 5788 5786 5784 5781 5779 5776 5773
5771 5772 5773 5775 5776 5777 5779 5780 5782 5783 5784 5786 5787 5788 5788 5789 5789 5789 5789 5789 5789 5789 5788 5788 5787 5787 5786 5785 5783 5782 5780 5778 5776 5774 5771 5769 5766 5763
5763 5764 5766 5767 5768 5770 5771 5772 5774 5775 5776 5777 5778 5779 5780 5780 5780 5781 5781 5781 5781 5780 5780 5780 5779 5778 5777 5776 5774 5773 5771 5769 5766 5764 5762 5759 5756 5754
5755 5756 5757 5759 5761 5762 5764 5765 5766 5767 5768 5769 5770 5771 5771 5771 5772 5772 5772 5772 5772 5772 5771 5771 5770 5769 5768 5766 5765 5763 5761 5759 5757 5754 5752 5750 5747 5744
5748 5749 5750 5752 5753 5755 5756 5757 5758 5759 5760 5761 5761 5762 5762 5763 5763 5764 5764 5764 5763 5763 5763 5762 5761 5760 5758 5757 5755 5753 5751 5749 5747 5745 5742 5740 5738 5736
5740 5742 5743 5745 5746 5748 5749 5750 5751 5752 5753 5753 5754 5754 5755 5755 5755 5755 5755 5755 5755 5755 5754 5753 5752 5751 5749 5748 5746 5744 5742 5740 5738 5736 5734 5732 5730 5728
5734 5735 5736 5738 5739 5741 5742 5743 5744 5744 5745 5746 5746 5747 5747 5747 5747 5747 5747 5747 5747 5746 5745 5744 5743 5742 5740 5739 5737 5736 5734 5732 5730 5728 5726 5724 5723 5721
5728 5729 5730 5731 5733 5734 5735 5736 5737 5737 5738 5739 5739 5739 5740 5740 5739 5739 5739 5739 5738 5738 5737 5736 5735 5734 5732 5731 5730 5728 5726 5725 5723 5721 5720 5718 5716 5715
5723 5724 5725 5726 5727 5728 5728 5729 5730 5731 5732 5732 5732 5733 5733 5733 5732 5732 5732 5731 5731 5730 5729 5728 5728 5727 5725 5724 5723 5721 5720 5718 5717 5715 5714 5712 5710 5709
5718 5719 5720 5721 5721 5722 5723 5723 5724 5725 5725 5726 5726 5726 5726 5726 5726 5726 5725 5725 5724 5723 5723 5722 5721 5720 5719 5718 5716 5715 5714 5713 5711 5710 5708 5707 5705 5704
5715 5715 5716 5716 5717 5717 5718 5718 5719 5719 5719 5719 5720 5720 5720 5720 5720 5719 5719 5718 5718 5717 5717 5716 5715 5714 5713 5712 5711 5710 5709 5708 5706 5705 5704 5702 5700 5699
5712 5712 5712 5713 5713 5713 5714 5714 5714 5714 5715 5715 5715 5715 5715 5715 5714 5714 5713 5713 5712 5712 5711 5711 5710 5709 5709 5708 5707 5705 5704 5703 5701 5700 5699 5697 5696 5694
5710 5710 5710 5710 5711 5711 5711 5711 5711 5711 5711 5711 5711 5711 5711 5711 5710 5710 5709 5709 5708 5708 5707 5706 5706 5705 5704 5703 5702 5701 5700 5698 5697 5695 5694 5693 5692 5690
5709 5709 5709 5709 5709 5709 5709 5709 5709 5709 5709 5709 5708 5708 5708 5708 5707 5706 5706 5705 5704 5704 5703 5702 5702 5701 5700 5699 5698 5697 5695 5694 5693 5692 5690 5689 5688 5686
5709 5709 5709 5708 5708 5708 5708 5708 5708 5707 5707 5707 5707 5706 5706 5705 5704 5703 5703 5702 5701 5700 5700 5699 5698 5697 5696 5695 5694 5693 5692 5691 5690 5689 5687 5686 5684 5682
5710 5710 5709 5709 5708 5708 5708 5707 5707 5707 5706 5706 5706 5705 5704 5704 5703 5702 5701 5700 5699 5698 5697 5696 5695 5695 5694 5693 5692 5691 5689 5688 5687 5685 5684 5682 5681 5679
5712 5711 5711 5710 5709 5709 5708 5708 5707 5706 5706 5706 5705 5705 5704 5703 5702 5700 5699 5698 5697 5696 5695 5694 5693 5692 5691 5690 5689 5688 5687 5685 5684 5682 5681 5679 5677 5675
5714 5713 5712 5711 5711 5710 5709 5709 5708 5707 5706 5706 5705 5704 5704 5702 5701 5700 5699 5698 5696 5695 5694 5693 5692 5691 5690 5688 5687 5686 5684 5682 5680 5679 5677 5675 5673 5671
5717 5716 5715 5714 5713 5712 5711 5711 5710 5709 5708 5707 5706 5705 5704 5703 5702 5700 5699 5697 5696 5694 5693 5692 5690 5689 5688 5686 5685 5683 5681 5679 5677 5675 5673 5671 5669 5666
5720 5719 5718 5717 5716 5715 5714 5713 5712 5711 5710 5709 5707 5706 5705 5703 5702 5700 5699 5697 5696 5694 5693 5691 5689 5687 5686 5684 5682 5680 5678 5676 5673 5671 5669 5666 5664 5661
5723 5722 5721 5720 5719 5718 5717 5716 5714 5713 5712 5710 5709 5707 5706 5704 5703 5701 5699 5697 5696 5694 5692 5690 5688 5686 5684 5681 5679 5677 5675 5672 5669 5666 5664 5661 5659 5656
5726 5725 5724 5723 5722 5721 5720 5719 5717 5716 5714 5712 5711 5709 5707 5705 5704 5702 5700 5698 5696 5693 5691 5689 5686 5684 5681 5679 5676 5674 5671 5668 5665 5662 5658 5656 5653 5650
5730 5729 5728 5727 5726 5724 5723 5721 5720 5718 5716 5714 5713 5711 5709 5706 5704 5702 5700 5697 5695 5692 5690 5687 5684 5681 5678 5675 5672 5669 5666 5663 5660 5657 5654 5650 5647 5644